Time,TemperatureF,DewpointF,PressureIn,WindDirection,WindDirectionDegrees,WindSpeedMPH,WindSpeedGustMPH,Humidity,HourlyPrecipIn,Conditions,Clouds,dailyrainin,SoftwareType,DateUTC
2013-07-09 00:22:00,78.0,72.0,30.01,West,265,5.0,10.0,83,0.00,,,0.07,,2013-07-09 04:22:00,
2013-07-09 00:42:00,78.0,73.0,30.01,WSW,252,4.0,12.0,84,0.00,,,0.07,,2013-07-09 04:42:00,
2013-07-09 01:02:00,77.0,72.0,30.01,WSW,254,4.0,10.0,84,0.00,,,0.07,,2013-07-09 05:02:00,
2013-07-09 01:11:00,77.0,72.0,30.01,WSW,252,4.0,10.0,85,0.00,,,0.07,,2013-07-09 05:11:00,
2013-07-09 01:33:00,77.0,72.0,30.00,WSW,250,4.0,11.0,85,0.00,,,0.07,,2013-07-09 05:33:00,
2013-07-09 01:42:00,77.0,72.0,30.00,WSW,246,5.0,11.0,86,0.00,,,0.07,,2013-07-09 05:42:00,
2013-07-09 02:01:00,77.0,73.0,30.00,WSW,241,5.0,11.0,87,0.00,,,0.07,,2013-07-09 06:01:00,
2013-07-09 02:11:00,77.0,73.0,30.00,WSW,244,4.0,11.0,88,0.00,,,0.07,,2013-07-09 06:11:00,
2013-07-09 02:22:00,77.0,73.0,30.00,SW,236,6.0,9.0,88,0.00,,,0.07,,2013-07-09 06:22:00,
2013-07-09 02:43:00,77.0,73.0,30.00,West,264,6.0,12.0,88,0.00,,,0.07,,2013-07-09 06:43:00,
2013-07-09 02:53:00,77.0,73.0,30.00,WSW,248,5.0,12.0,88,0.00,,,0.07,,2013-07-09 06:53:00,
2013-07-09 03:02:00,77.0,73.0,30.00,WSW,246,4.0,11.0,88,0.00,,,0.07,,2013-07-09 07:02:00,
2013-07-09 03:12:00,77.0,74.0,30.00,West,267,4.0,11.0,89,0.00,,,0.07,,2013-07-09 07:12:00,
2013-07-09 03:22:00,77.0,74.0,30.00,SW,231,4.0,9.0,89,0.00,,,0.07,,2013-07-09 07:22:00,
2013-07-09 03:34:00,76.0,73.0,30.00,West,264,4.0,9.0,90,0.00,,,0.07,,2013-07-09 07:34:00,
2013-07-09 03:43:00,76.0,73.0,30.00,West,274,3.0,8.0,90,0.00,,,0.07,,2013-07-09 07:43:00,
2013-07-09 03:53:00,76.0,73.0,30.01,WSW,244,2.0,6.0,90,0.00,,,0.07,,2013-07-09 07:53:00,
2013-07-09 04:01:00,76.0,73.0,30.00,SSW,212,4.0,8.0,91,0.00,,,0.07,,2013-07-09 08:01:00,
2013-07-09 04:22:00,76.0,73.0,30.01,WSW,257,3.0,7.0,91,0.00,,,0.07,,2013-07-09 08:22:00,
2013-07-09 04:33:00,76.0,73.0,30.01,WSW,240,3.0,8.0,91,0.00,,,0.07,,2013-07-09 08:33:00,
2013-07-09 04:43:00,76.0,73.0,30.01,WSW,239,3.0,6.0,91,0.00,,,0.07,,2013-07-09 08:43:00,
2013-07-09 04:52:00,76.0,74.0,30.01,WSW,244,3.0,7.0,92,0.00,,,0.07,,2013-07-09 08:52:00,
2013-07-09 05:02:00,75.0,73.0,30.00,WSW,251,3.0,7.0,92,0.00,,,0.07,,2013-07-09 09:02:00,
2013-07-09 05:12:00,75.0,73.0,30.00,WSW,241,4.0,7.0,93,0.00,,,0.07,,2013-07-09 09:12:00,
2013-07-09 05:42:00,75.0,73.0,30.00,WSW,251,4.0,8.0,94,0.00,,,0.07,,2013-07-09 09:42:00,
2013-07-09 05:53:00,75.0,73.0,30.01,West,269,4.0,7.0,94,0.00,,,0.07,,2013-07-09 09:53:00,
2013-07-09 06:11:00,74.0,72.0,30.01,WSW,243,3.0,6.0,94,0.00,,,0.07,,2013-07-09 10:11:00,
2013-07-09 06:33:00,74.0,72.0,30.01,SW,229,2.0,6.0,95,0.00,,,0.07,,2013-07-09 10:33:00,
2013-07-09 06:42:00,74.0,72.0,30.01,SW,216,2.0,5.0,95,0.00,,,0.07,,2013-07-09 10:42:00,
2013-07-09 06:52:00,74.0,72.0,30.01,SW,236,2.0,4.0,95,0.00,,,0.07,,2013-07-09 10:52:00,
2013-07-09 07:53:00,75.0,73.0,30.01,SW,227,3.0,6.0,94,0.00,,,0.07,,2013-07-09 11:53:00,
2013-07-09 08:33:00,76.0,74.0,30.02,WSW,238,4.0,8.0,92,0.00,,,0.07,,2013-07-09 12:33:00,
2013-07-09 08:52:00,76.0,74.0,30.02,WSW,246,3.0,5.0,92,0.00,,,0.07,,2013-07-09 12:52:00,
2013-07-09 09:43:00,78.0,74.0,30.03,WSW,256,4.0,9.0,88,0.00,,,0.07,,2013-07-09 13:43:00,
2013-07-09 09:53:00,78.0,74.0,30.03,West,279,4.0,10.0,87,0.00,,,0.07,,2013-07-09 13:53:00,
2013-07-09 10:34:00,80.0,74.0,30.01,SW,234,4.0,9.0,83,0.00,,,0.07,,2013-07-09 14:34:00,
2013-07-09 10:43:00,81.0,75.0,30.01,WSW,257,4.0,7.0,83,0.00,,,0.07,,2013-07-09 14:43:00,
2013-07-09 10:53:00,81.0,75.0,30.01,WSW,241,2.0,7.0,81,0.00,,,0.07,,2013-07-09 14:53:00,
2013-07-09 12:43:00,84.0,77.0,30.01,South,180,6.0,12.0,79,0.00,,,0.07,,2013-07-09 16:43:00,
2013-07-09 12:52:00,84.0,76.0,30.01,SW,219,5.0,13.0,77,0.00,,,0.07,,2013-07-09 16:52:00,
2013-07-09 14:02:00,85.0,76.0,29.99,SSW,210,4.0,18.0,74,0.00,,,0.07,,2013-07-09 18:02:00,
2013-07-09 14:32:00,86.0,76.0,29.98,West,260,6.0,13.0,72,0.00,,,0.07,,2013-07-09 18:32:00,
2013-07-09 14:43:00,86.0,75.0,29.98,SW,235,13.0,17.0,70,0.00,,,0.07,,2013-07-09 18:43:00,
2013-07-09 14:52:00,85.0,75.0,29.98,WSW,247,10.0,18.0,71,0.00,,,0.07,,2013-07-09 18:52:00,
2013-07-09 15:52:00,83.0,75.0,29.98,West,265,5.0,12.0,76,0.00,,,0.03,,2013-07-09 19:52:00,
2013-07-09 16:01:00,83.0,75.0,29.98,WSW,241,7.0,12.0,77,0.00,,,0.03,,2013-07-09 20:01:00,
2013-07-09 16:43:00,79.0,73.0,29.98,WNW,291,4.0,10.0,83,0.00,,,0.01,,2013-07-09 20:43:00,
2013-07-09 16:52:00,79.0,74.0,29.99,West,275,6.0,9.0,84,0.00,,,0.01,,2013-07-09 20:52:00,
2013-07-09 17:32:00,78.0,74.0,29.97,NW,321,1.0,2.0,89,0.00,,,0.00,,2013-07-09 21:32:00,
2013-07-09 17:52:00,79.0,75.0,29.96,South,176,0.0,2.0,87,0.00,,,0.00,,2013-07-09 21:52:00,
2013-07-09 18:33:00,81.0,75.0,29.95,SSW,200,5.0,8.0,83,0.00,,,0.00,,2013-07-09 22:33:00,
2013-07-09 18:42:00,82.0,76.0,29.94,South,190,6.0,10.0,82,0.00,,,0.00,,2013-07-09 22:42:00,
2013-07-09 18:53:00,82.0,76.0,29.94,South,188,5.0,10.0,81,0.00,,,0.00,,2013-07-09 22:53:00,
2013-07-09 19:11:00,82.0,76.0,29.93,SSW,195,5.0,11.0,82,0.00,,,0.00,,2013-07-09 23:11:00,
2013-07-09 19:33:00,82.0,76.0,29.92,SSW,194,4.0,9.0,83,0.00,,,0.00,,2013-07-09 23:33:00,
2013-07-09 19:43:00,82.0,76.0,29.92,WSW,237,3.0,9.0,82,0.00,,,0.00,,2013-07-09 23:43:00,
2013-07-09 19:53:00,82.0,76.0,29.92,SW,229,4.0,9.0,81,0.00,,,0.00,,2013-07-09 23:53:00,
2013-07-09 20:01:00,82.0,75.0,29.92,WSW,240,6.0,8.0,79,0.00,,,0.00,,2013-07-10 00:01:00,
2013-07-09 20:11:00,82.0,75.0,29.92,SSW,192,3.0,8.0,79,0.00,,,0.00,,2013-07-10 00:11:00,
2013-07-09 20:22:00,82.0,75.0,29.92,South,183,3.0,7.0,80,0.00,,,0.00,,2013-07-10 00:22:00,
2013-07-09 20:33:00,82.0,75.0,29.92,SSW,211,3.0,5.0,80,0.00,,,0.00,,2013-07-10 00:33:00,
2013-07-09 20:42:00,82.0,76.0,29.92,SSW,202,1.0,6.0,81,0.00,,,0.00,,2013-07-10 00:42:00,
2013-07-09 20:52:00,82.0,76.0,29.93,SW,216,3.0,6.0,82,0.00,,,0.00,,2013-07-10 00:52:00,
2013-07-09 21:01:00,82.0,76.0,29.93,SSW,193,2.0,7.0,82,0.00,,,0.00,,2013-07-10 01:01:00,
2013-07-09 21:11:00,82.0,76.0,29.93,SSW,193,2.0,7.0,82,0.00,,,0.00,,2013-07-10 01:11:00,
2013-07-09 21:22:00,81.0,75.0,29.93,South,191,2.0,5.0,83,0.00,,,0.00,,2013-07-10 01:22:00,
2013-07-09 21:53:00,81.0,76.0,29.92,SSW,198,5.0,7.0,85,0.00,,,0.00,,2013-07-10 01:53:00,
2013-07-09 23:43:00,79.0,74.0,29.93,SSW,205,3.0,7.0,86,0.00,,,0.00,,2013-07-10 03:43:00,
2013-07-09 23:52:00,79.0,74.0,29.93,SSW,192,5.0,7.0,86,0.00,,,0.00,,2013-07-10 03:52:00,